Meteo pe oră la Dzierzenek

Astăzi, 9 Martie, Marţi

Timp Temperatura Precipitaţii Vânt Presiune Umiditate
00:00 -2°C° 0 mm 1 m/s 754 mmHg 84%
01:00 -2°C° 0 mm 1 m/s 754 mmHg 82%
02:00 -2°C° 0 mm 1 m/s 754 mmHg 81%
03:00 -2°C° 0 mm 1 m/s 754 mmHg 80%
04:00 -2°C° 0 mm 1 m/s 754 mmHg 78%
05:00 -2°C° 0 mm 1 m/s 754 mmHg 77%
06:00 -2°C° 0 mm 1 m/s 754 mmHg 75%
07:00 -2°C° 0 mm 1 m/s 754 mmHg 73%
08:00 -1°C° 0 mm 1 m/s 754 mmHg 68%
09:00 -1°C° 0 mm 1 m/s 754 mmHg 64%
10:00 -2°C° 0 mm 2 m/s 754 mmHg 59%
11:00 -2°C° 0 mm 2 m/s 754 mmHg 56%
12:00 -1°C° 0 mm 2 m/s 754 mmHg 52%
13:00 -1°C° 0 mm 2 m/s 753 mmHg 49%
14:00 -1°C° 0 mm 2 m/s 753 mmHg 49%
15:00 -1°C° 0 mm 2 m/s 753 mmHg 48%
16:00 -1°C° 0 mm 2 m/s 753 mmHg 47%
17:00 -2°C° 0 mm 2 m/s 753 mmHg 51%
18:00 -2°C° 0 mm 2 m/s 753 mmHg 55%
19:00 -3°C° 0 mm 2 m/s 753 mmHg 58%
20:00 -3°C° 0 mm 2 m/s 753 mmHg 58%
21:00 -3°C° 0 mm 2 m/s 753 mmHg 57%
22:00 -5°C° 0 mm 3 m/s 753 mmHg 57%
23:00 -4°C° 0 mm 2 m/s 753 mmHg 57%

Mâine, 10 Martie, Miercuri

Timp Temperatura Precipitaţii Vânt Presiune Umiditate
00:00 -4°C° 0 mm 2 m/s 753 mmHg 57%
01:00 -4°C° 0 mm 2 m/s 753 mmHg 57%
02:00 -4°C° 0 mm 2 m/s 752 mmHg 58%
03:00 -4°C° 0 mm 2 m/s 752 mmHg 59%
04:00 -4°C° 0 mm 2 m/s 752 mmHg 60%
05:00 -4°C° 0 mm 2 m/s 752 mmHg 61%
06:00 -4°C° 0 mm 2 m/s 752 mmHg 61%
07:00 -3°C° 0 mm 2 m/s 752 mmHg 62%
08:00 -2°C° 0 mm 2 m/s 753 mmHg 57%
09:00 -1°C° 0 mm 2 m/s 753 mmHg 53%
10:00 +1°C° 0 mm 2 m/s 753 mmHg 48%
11:00 +2°C° 0 mm 2 m/s 753 mmHg 46%
12:00 +2°C° 0 mm 2 m/s 753 mmHg 44%
13:00 +3°C° 0 mm 2 m/s 753 mmHg 42%
14:00 +4°C° 0 mm 1 m/s 753 mmHg 43%
15:00 +4°C° 0 mm 1 m/s 752 mmHg 44%
16:00 +3°C° 0 mm 0 m/s 752 mmHg 45%
17:00 +1°C° 0 mm 0 m/s 752 mmHg 49%
18:00 0°C° 0 mm 0 m/s 752 mmHg 53%
19:00 -1°C° 0 mm 0 m/s 752 mmHg 56%
20:00 0°C° 0 mm 1 m/s 753 mmHg 59%
21:00 -2°C° 0 mm 2 m/s 753 mmHg 61%
22:00 -3°C° 0 mm 2 m/s 753 mmHg 63%
23:00 -3°C° 0 mm 2 m/s 753 mmHg 64%

Poimâine, 11 Martie, Joi

Timp Temperatura Precipitaţii Vânt Presiune Umiditate
00:00 -4°C° 0 mm 3 m/s 753 mmHg 64%
01:00 -4°C° 0 mm 3 m/s 752 mmHg 64%
02:00 -4°C° 0 mm 3 m/s 752 mmHg 64%
03:00 -4°C° 0 mm 3 m/s 751 mmHg 63%
04:00 -4°C° 0 mm 3 m/s 751 mmHg 63%
05:00 -4°C° 0 mm 4 m/s 751 mmHg 60%
06:00 -4°C° 0 mm 4 m/s 750 mmHg 57%
07:00 -4°C° 0 mm 5 m/s 750 mmHg 55%
08:00 -3°C° 0 mm 6 m/s 750 mmHg 50%
09:00 -2°C° 0 mm 7 m/s 749 mmHg 46%
10:00 -1°C° 0 mm 8 m/s 749 mmHg 41%
11:00 -1°C° 0 mm 8 m/s 748 mmHg 41%
12:00 0°C° 0 mm 8 m/s 747 mmHg 41%
13:00 0°C° 0 mm 9 m/s 746 mmHg 40%
14:00 0°C° 0 mm 8 m/s 745 mmHg 44%
15:00 0°C° 0 mm 8 m/s 744 mmHg 47%
16:00 0°C° 0 mm 8 m/s 743 mmHg 51%
17:00 -1°C° 0.7 mm 8 m/s 742 mmHg 66%
18:00 -1°C° 0.7 mm 8 m/s 742 mmHg 81%
19:00 -3°C° 0.7 mm 9 m/s 741 mmHg 96%
20:00 -2°C° 0.9 mm 8 m/s 740 mmHg 96%
21:00 -1°C° 0.9 mm 6 m/s 740 mmHg 96%
22:00 0°C° 0.9 mm 5 m/s 739 mmHg 96%
23:00 +1°C° 0.3 mm 5 m/s 739 mmHg 96%

12 Martie, Vineri

Timp Temperatura Precipitaţii Vânt Presiune Umiditate
00:00 +1°C° 0.3 mm 5 m/s 739 mmHg 96%
01:00 +1°C° 0.3 mm 4 m/s 738 mmHg 96%
02:00 +1°C° 0.2 mm 5 m/s 738 mmHg 96%
03:00 +1°C° 0.2 mm 5 m/s 738 mmHg 95%
04:00 +1°C° 0.2 mm 6 m/s 738 mmHg 95%
05:00 +1°C° 0.3 mm 6 m/s 739 mmHg 94%
06:00 +1°C° 0.3 mm 6 m/s 739 mmHg 93%
07:00 +1°C° 0.3 mm 6 m/s 739 mmHg 92%
08:00 +1°C° 0.8 mm 6 m/s 739 mmHg 94%
09:00 +1°C° 0.8 mm 5 m/s 740 mmHg 95%
10:00 0°C° 0.8 mm 5 m/s 741 mmHg 97%
11:00 +1°C° 0.2 mm 5 m/s 741 mmHg 92%
12:00 +1°C° 0.2 mm 6 m/s 742 mmHg 87%
13:00 +2°C° 0.2 mm 6 m/s 743 mmHg 82%
14:00 +3°C° 0.1 mm 5 m/s 743 mmHg 79%
15:00 +3°C° 0.1 mm 5 m/s 743 mmHg 76%
16:00 +4°C° 0.1 mm 4 m/s 744 mmHg 73%
17:00 +3°C° 0 mm 4 m/s 744 mmHg 76%
18:00 +2°C° 0 mm 3 m/s 744 mmHg 80%
19:00 +1°C° 0 mm 3 m/s 744 mmHg 84%
20:00 +1°C° 0 mm 3 m/s 744 mmHg 85%
21:00 +1°C° 0 mm 3 m/s 744 mmHg 85%
22:00 -1°C° 0 mm 4 m/s 744 mmHg 85%
23:00 -1°C° 0 mm 4 m/s 743 mmHg 85%

13 Martie, Sâmbătă

Timp Temperatura Precipitaţii Vânt Presiune Umiditate
00:00 -1°C° 0 mm 4 m/s 743 mmHg 84%
01:00 -1°C° 0 mm 5 m/s 743 mmHg 84%
02:00 -1°C° 0 mm 5 m/s 742 mmHg 83%
03:00 -1°C° 0 mm 5 m/s 741 mmHg 82%
04:00 -1°C° 0 mm 6 m/s 741 mmHg 82%
05:00 -1°C° 0.3 mm 6 m/s 741 mmHg 86%
06:00 -1°C° 0.3 mm 6 m/s 741 mmHg 91%
07:00 -1°C° 0.3 mm 7 m/s 741 mmHg 95%
08:00 0°C° 0.3 mm 7 m/s 741 mmHg 90%
09:00 +2°C° 0.3 mm 7 m/s 741 mmHg 84%
10:00 +3°C° 0.3 mm 7 m/s 742 mmHg 79%
11:00 +3°C° 0.1 mm 7 m/s 742 mmHg 74%
12:00 +4°C° 0.1 mm 7 m/s 742 mmHg 70%
13:00 +5°C° 0.1 mm 7 m/s 742 mmHg 65%
14:00 +5°C° 0 mm 6 m/s 742 mmHg 64%
15:00 +6°C° 0 mm 5 m/s 741 mmHg 64%
16:00 +7°C° 0 mm 5 m/s 741 mmHg 63%
17:00 +6°C° 0 mm 5 m/s 741 mmHg 67%
18:00 +5°C° 0 mm 5 m/s 740 mmHg 72%
19:00 +3°C° 0 mm 5 m/s 740 mmHg 77%
20:00 +3°C° 0 mm 6 m/s 740 mmHg 78%
21:00 +4°C° 0 mm 7 m/s 739 mmHg 79%
22:00 +4°C° 0 mm 7 m/s 739 mmHg 79%
23:00 +4°C° 0.1 mm 7 m/s 739 mmHg 82%

14 Martie, Duminică

Timp Temperatura Precipitaţii Vânt Presiune Umiditate
00:00 +4°C° 0.1 mm 7 m/s 738 mmHg 84%
01:00 +4°C° 0.1 mm 7 m/s 738 mmHg 86%
02:00 +4°C° 0 mm 7 m/s 737 mmHg 85%
03:00 +4°C° 0 mm 7 m/s 737 mmHg 83%
04:00 +4°C° 0 mm 7 m/s 736 mmHg 82%
05:00 +4°C° 0.1 mm 7 m/s 736 mmHg 82%
06:00 +4°C° 0.1 mm 7 m/s 736 mmHg 82%
07:00 +4°C° 0.1 mm 7 m/s 736 mmHg 82%
08:00 +4°C° 0.4 mm 8 m/s 736 mmHg 83%
09:00 +4°C° 0.4 mm 8 m/s 736 mmHg 83%
10:00 +3°C° 0.4 mm 9 m/s 736 mmHg 83%
11:00 +5°C° 0.1 mm 9 m/s 737 mmHg 75%
12:00 +5°C° 0.1 mm 9 m/s 737 mmHg 67%
13:00 +5°C° 0.1 mm 9 m/s 738 mmHg 59%
14:00 +5°C° 0 mm 9 m/s 738 mmHg 61%
15:00 +5°C° 0 mm 8 m/s 738 mmHg 62%
16:00 +4°C° 0 mm 7 m/s 738 mmHg 64%
17:00 +3°C° 0 mm 7 m/s 739 mmHg 68%
18:00 +3°C° 0 mm 7 m/s 739 mmHg 73%
19:00 +2°C° 0 mm 6 m/s 739 mmHg 77%
20:00 +2°C° 0 mm 6 m/s 740 mmHg 80%
21:00 +2°C° 0 mm 6 m/s 740 mmHg 84%
22:00 +1°C° 0 mm 6 m/s 740 mmHg 88%
23:00 +1°C° 0 mm 6 m/s 740 mmHg 88%
Arată mai mult

Formular de consimțământ

Meteoprog și furnizorii noștri de servicii pot stoca și accesa date personale, precum cookies, identificatori de dispozitiv sau alte tehnologii similare pe dispozitivul dumneavoastră și procesa astfel de date pentru a personaliza conținutul și reclamele, dar și pentru a oferi caracteristici de social media și pentru a analiza traficul.

  • Stocarea și/sau accesarea informațiilor pe dispozitivul dumneavoastră

    Cookies, identificatori de dispozitiv sau alte informații pot fi stocate sau accesate pe dispozitiv în scopurile indicate mai sus.

  • Reclame și conținut personalizat, evaluarea reclamelor și a conținutului, informații despre audiențe și dezvoltarea produselor

    Reclamele și conținutul pot fi personalizate pe baza unui profil. Pot fi adăugate date suplimentare pentru a personaliza mai bine reclamele și conținutul. Performanța reclamelor și conținutului poate fi măsurată. Pot fi obținute informații despre utilizatorii care au văzut reclamele și conținutul. Aceste date pot fi utilizate pentru a dezvolta sau îmbunătăți experiența utilizatorilor, sistemele și software-ul.

Dând clic pe ‘Sunt de acord’, permiteți utilizarea cookie-urilor menționate, a identificatorilor de dispozitiv, balizelor web sau altor tehnologii similare. Setările pot fi modificate din browser-ul dispozitivului dumneavoastră.

În anumite scopuri, interesele legitime pot prima asupra consimțământului. Puteți citi mai multe informații în acest sens în Politica privind Confidențialitatea Datelor și Cookie.